Simultaneous Nadir Overpasses (SNOs) Predictions

Prediction of SNOs between METOP-B and TERRA Satellite Orbit:

Table of predicted SNOs for the next 14.0 days since TLE Epoch: 10/15/2017
Index Date (METOP-B) Time (METOP-B) Lat,Lon (METOP-B) SZA (METOP-B ) Date (TERRA) Time (TERRA) Lat,Lon (TERRA) SZA (TERRA ) Distance(km) Time Diff (sec)
1 10/17/2017 05:07:36 -81.29, -30.39 86.35 10/17/2017 05:08:21 -81.28, -30.37 86.33 0.78 45
2 10/17/2017 05:58:15 81.30, 137.61 93.75 10/17/2017 05:57:46 81.31, 137.72 93.76 2.06 29
3 10/20/2017 00:41:58 -81.29, 36.27 85.29 10/20/2017 00:42:34 -81.29, 36.13 85.29 2.44 36
4 10/20/2017 01:32:38 81.30,-156.10 94.77 10/20/2017 01:32:00 81.29,-156.18 94.73 1.52 38
5 10/22/2017 20:16:21 -81.29, 102.51 84.30 10/22/2017 20:16:47 -81.29, 102.57 84.29 1.08 26
6 10/22/2017 21:06:59 81.30, -89.45 95.80 10/22/2017 21:06:11 81.31, -89.37 95.79 1.69 48
7 10/25/2017 15:50:42 -81.29, 169.12 83.30 10/25/2017 15:50:59 -81.28, 168.95 83.32 3.07 17
8 10/25/2017 16:41:21 81.30, -22.83 96.81 10/25/2017 16:40:24 81.30, -23.00 96.76 2.88 57
9 10/28/2017 11:25:04 -81.30,-124.30 82.33 10/28/2017 11:25:11 -81.30,-124.35 82.33 0.82 7




NCC Satellite Simultaneous Nadir Overpasses (SNOs) Prediction Service
